Location: *
(40.4000°N, 15.1200°E)
Time: 05:45:06
(UTC+00:00)

Meteor 2-1 Rocket - Pass Details

Date: 09 April 2020
Orbit: 828 x 908 km, 81.3° (Epoch: 05 June)

Event Time Altitude Azimuth Distance (km) Brightness Sun altitude
Exits shadow 19:41:01 45° 159° (SSE) 1,203 4.6 -23.3°
Maximum altitude 19:42:44 67° 96° (E) 978 4.2 -23.5°
Drops below altitude 10° 19:48:37 10° 15° (NNE) 2,601 7.0 -24.5°
Sets 19:51:07 0° 13° (NNE) 3,546 7.7 -24.8°
